User: anonymous   Login
Location: Radomski Observatory
(40.2854°N, 79.5145°W)
Time: 13:58:54
(UTC-05:00)
Language:

Uosat F - Orbit

View from above orbital plane
View from above orbital plane
View from above satellite
View from above satellite

Ground track
Ground track

The orbit data is extracted from the following two-line orbital elements,

1 21575U 91050B   14324.84225907  .00000389  00000-0  13666-3 0  1735
2 21575 098.7186 303.7788 0006936 207.4020 215.4169 14.40483973226030
Epoch (UTC): 20 November 2014 20:12:51
Eccentricity: 0.0006936
inclination: 98.7186°
perigee height: 752 km
apogee height: 762 km
right ascension of ascending node: 303.7788°
argument of perigee: 207.4020°
revolutions per day: 14.40483973
mean anomaly at epoch: 215.4169°
orbit number at epoch: 22603

The dashed part of the orbit path shows where the satellite is in the earth's shadow,  

DLR